Find Starlink 5553

NORAD ID: 56333 Int'l Des: 2023-058 Owner: SPXS Country: US Constellation: starlink operational
LEOCIRCULARRETROGRADESSO

リアルタイム位置

3D地球を読み込み中...

Starlink 5553について

説明を読み込み中...

次回通過

Passes for default location (London). Set your location on the main map for personalized predictions.

高度履歴

Loading altitude history...

軌道要素

1 56333U 23058S 26126.97004126 -.00000194 00000-0 -93200-5 0 9999
2 56333 97.5257 128.5369 0001898 73.6862 286.4573 15.05648831166963
Epoch: May 6, 2026 • Age: 10 hours

現在のステータス

高度 551.9 km
速度 7.59 km/s
衛星直下点 14.13°N, 58.16°W
打ち上げ日 Apr 27, 2023
運用期間 3 years
タイプ internet

技術仕様

分類 Payload
質量 300.00 kg
乾燥質量 260.00 kg
総質量 300.00 kg
長さ 0.20 m
直径 2.80 m
スパン 9.00 m
形状 Box + pan
製造者 SPXS
バスタイプ Starlink
フェーズステータス In Orbit
所有者/国 SPXS/US

Most Searched